Regional Weather Roundup
Issued by NWS

Home | Current Version | Previous Version | Graphics & Text | Print | Product List | Glossary On
Versions: 1 2 3 4 5 6 7 8 9 10 11 12 13 14 15 16 17 18 19 20 21 22 23 24 25 26 27 28 29 30 31 32 33 34 35 36 37 38 39 40 41 42 43 44 45 46 47 48 49 50
000
ASUS43 KMPX 031010
RWRMN
WEATHER ROUNDUP FOR MINNESOTA
NATIONAL WEATHER SERVICE TWIN CITIES/CHANHASSEN MN
500 AM CDT FRI JUL 03 2015


NOTE: "FAIR" INDICATES FEW OR NO CLOUDS BELOW 12,000 FEET WITH NO
SIGNIFICANT WEATHER AND/OR OBSTRUCTIONS TO VISIBILITY. N/A MEANS
CURRENT SKY AND/OR WEATHER CONDITIONS ARE NOT AVAILABLE.

MNZ060>063-068>070-031100-
   Twin Cities Metro

CITY           SKY/WX    TMP DP  RH WIND       PRES   REMARKS
TWIN CITIES    CLEAR     62  56  80 CALM      29.98S
ST PAUL        CLEAR     58  56  93 CALM      29.98S
CRYSTAL        CLEAR     57  54  89 CALM      29.96F
BLAINE         CLEAR     57  55  94 S3        29.97F
LAKEVILLE      CLEAR     54  54 100 CALM      29.99S
EDEN PRAIRIE   CLEAR     58  55  90 S3        29.97S
SOUTH ST PAUL  CLEAR     60  55  83 CALM      29.98S
LAKE ELMO      FAIR      55  54  94 CALM      29.99F
$$
MNZ001>005-007-008-013>017-022>024-027-028-031100-
   Northwest Minnesota

CITY           SKY/WX    TMP DP  RH WIND       PRES   REMARKS
BEMIDJI        PTCLDY    60  53  78 SW3       29.91R
HALLOCK        FOG       57  57 100 CALM      29.89S VSB<1/4
ROSEAU         HAZE      64  59  82 W7        29.88S VSB 1/4
WARROAD        FOG       63  57  82 W5        29.88R VSB 1/2
THIEF RVR FALL CLOUDY    61  57  88 CALM      29.90S
CROOKSTON      CLEAR     59  57  94 NW5       29.91R FOG
FOSSTON        CLEAR     57  54  88 CALM      29.91F
DETROIT LAKES  CLEAR     63  59  88 CALM      29.95R
MOORHEAD       CLEAR     63  61  94 S5        29.93S
PARK RAPIDS    CLEAR     59  53  80 SW5       29.94R
MAHNOMEN       CLOUDY    59  56  91 S6        29.92S
$$
MNZ006-009>011-018-025>026-031100-
   North Central Minnesota

CITY           SKY/WX    TMP DP  RH WIND       PRES   REMARKS
BAUDETTE       PTCLDY    62  58  86 W6        29.86S
FLAG ISLAND    CLEAR     66  63  88 W9        29.84S FOG
INTL FALLS     CLOUDY    62  56  80 W6        29.85S
WASKISH        MOCLDY    66  61  82 W12       29.88R
BIG FORK       CLEAR     61  54  77 SW5       29.89S
LONGVILLE      PTCLDY    63  54  72 SW7       29.92S
GRAND RAPIDS   CLOUDY    64  52  63 SW8       29.91S
CRANE LAKE     PTCLDY    63  55  77 SW2       29.87S
ORR            PTCLDY    61  52  72 CALM      29.85S
COOK           MOCLDY    63  55  77 SW5       29.89R
WALKER         CLOUDY    63  54  73 W8        29.92R
$$
MNZ012-019>021-037-031100-
   Northeast Minnesota

CITY           SKY/WX    TMP DP  RH WIND       PRES   REMARKS
DULUTH         MOCLDY    63  53  70 W10       29.92R
ELY            MOCLDY    63  57  82 SW6       29.88S
HIBBING        CLOUDY    61  53  75 SW3       29.90S
DULUTH HARBOR  MOCLDY    63  57  82 SW9       29.92R
SILVER BAY     MOCLDY    64  55  72 CALM      29.87S
GRAND MARAIS     N/A     52  49  89 W6        29.84S
G MARAIS ARPRT MOCLDY    61  54  77 W6        29.88S THUNDER
$$
MNZ029>031-032-039>041-046>048-054>057-064-031100-
   West Central Minnesota

CITY           SKY/WX    TMP DP  RH WIND       PRES   REMARKS
FERGUS FALLS   CLEAR     59  57  94 S5        29.95S
WHEATON        CLEAR     55  54  94 S5        29.98R
MORRIS         CLEAR     57  54  88 CALM      29.97R
ALEXANDRIA     CLEAR     57  52  83 SW7       29.98S
ELBOW LAKE     FAIR      56  54  93 SW7       29.96S
WADENA         PTCLDY    55  52  88 SW5       29.95S
GLENWOOD       CLEAR     55  52  88 SW6       29.99R
APPLETON       CLEAR     55  52  88 SW3       29.97S
BENSON         CLEAR     54  50  87 CALM      29.97S
ORTONVILLE     CLEAR     57  54  88 CALM      29.97S
MADISON          N/A     54  52  94 SW5       29.98S
WILLMAR        FAIR      55  52  88 SW3       29.99S
$$
MNZ033>034-036-042>043-049>051-058-059-031100-
   Central Minnesota

CITY           SKY/WX    TMP DP  RH WIND       PRES   REMARKS
ST CLOUD       CLEAR     51  49  92 CALM      29.97S
SAUK CENTRE    FAIR      53  51  92 CALM      29.98R
PAYNESVILLE    CLEAR     47  47 100 CALM      29.98R
AITKIN         PTCLDY    61  52  72 SW5       29.92S
PINE RIVER     PTCLDY    55  52  88 SW3       29.97S
BRAINERD       CLEAR     53  51  93 S5        29.95S
STAPLES        PTCLDY    54  52  94 SW3       29.95S
LONG PRAIRIE   FAIR      52  50  93 S3        29.98R
LITTLE FALLS   CLEAR     52  50  93 CALM      29.96S
LITCHFIELD     CLEAR     57  54  88 CALM      29.98S
BUFFALO        CLEAR     54  50  87 CALM      29.99S
MAPLE LAKE     CLEAR     55  53  95 CALM      29.98S
$$
MNZ037-044-045-052-053-031100-
   East Central Minnesota

CITY           SKY/WX    TMP DP  RH WIND       PRES   REMARKS
PRINCETON      CLEAR     52  52 100 CALM      29.98R
MORA           CLEAR     54  52  94 CALM      29.98R
CAMBRIDGE      CLEAR     59  50  72 CALM      29.95S
RUSH CITY      PTCLDY    56  54  92 CALM      29.96S
MOOSE LAKE     FOG       52  50  93 SW3       29.92F VSB 1/2
HINCKLEY         N/A     52  52 100 CALM      29.96R FOG
CLOQUET        PTCLDY    61  52  72 SW5       29.93S
MCGREGOR       CLOUDY    59  54  82 SW5       29.94S
$$
MNZ071>073-080-081-089-090-097-098-031100-
   Southwest Minnesota

CITY           SKY/WX    TMP DP  RH WIND       PRES   REMARKS
MONTEVIDEO     CLEAR     55  50  82 SW5       29.99R
GRANITE FALLS  CLEAR     52  51  94 CALM      30.00S
CANBY          CLEAR     57  54  88 W5        30.00R
MARSHALL       CLEAR     54  48  82 SW6       29.98S
REDWOOD FALLS  CLEAR     54  49  83 SW7       29.98F
OLIVIA         CLEAR     52  48  87 SW6       29.98F
PIPESTONE      CLEAR     52  50  93 CALM      30.01S
WINDOM         CLEAR     48  46  93 CALM      30.02R
WORTHINGTON    CLEAR     54  48  82 SW3       30.02S
JACKSON        CLEAR     52  50  93 CALM      30.02S
TRACY          CLEAR     56  52  86 SW8       30.00S
SLAYTON        CLEAR     53  52  97 CALM      30.02S
$$
MNZ065>067-074>077-082>085-091>093-031100-
   South Central Minnesota

CITY           SKY/WX    TMP DP  RH WIND       PRES   REMARKS
MANKATO        CLEAR     57  52  82 CALM      30.00S
NEW ULM        CLEAR     54  52  94 CALM      29.99S
ST JAMES       CLEAR     54  52  94 SW3       30.01S
FAIRMONT       CLEAR     55  46  71 CALM      30.00S
GLENCOE        CLEAR     57  52  84 SW3       29.98S
FARIBAULT      CLEAR     54  54 100 S3        30.00S
OWATONNA       CLEAR     55  52  88 CALM      30.00S
WASECA         CLEAR     52  50  93 CALM      30.02R
ALBERT LEA     CLEAR     55  54  94 CALM      30.01S
$$
MNZ078>079-086>088-094>096-031100-
   Southeast Minnesota

CITY           SKY/WX    TMP DP  RH WIND       PRES   REMARKS
ROCHESTER      CLEAR     54  52  93 SW6       30.02R
RED WING       CLEAR     54  52  94 CALM      29.98S
STANTON        CLEAR     54  52  94 CALM      29.98S
DODGE CENTER   PTCLDY    54  52  94 W5        30.01R
WINONA         CLEAR     55  55 100 CALM      30.00S
AUSTIN         CLEAR     55  54  94 CALM      30.01R
PRESTON        PTCLDY    54  50  88 SW3       30.01S
$$
ABBREVIATIONS USED IN REMARKS
   TC - TEMPERATURES IN CELSIUS
  WCI - WIND CHILL INDEX
   HX - HEAT INDEX
  VSB - VISIBILITY
$$



USA.gov is the U.S. government's official web portal to all federal, state and local government web resources and services.